Simultaneous Nadir Overpasses (SNOs) Predictions

Prediction of SNOs between GOES-14 and AQUA Satellite Orbit:

Table of predicted SNOs for the next 14.0 days since TLE Epoch: 10/1/2022
Index Date Time (GOES-14) GOES-14 Lat,Lon AQUA Lat,Lon Distance(km) Time Diff (sec)
1 10/02/2022 08:20:10 0.29,-104.37 -0.59,-100.24 469.48 80
2 10/02/2022 20:41:25 -0.27,-104.36 -0.52,-105.39 118.11 80
3 10/04/2022 20:31:20 -0.26,-104.35 0.21,-102.30 234.03 80
4 10/05/2022 08:52:27 0.23,-104.39 0.87,-107.42 343.92 80
5 10/07/2022 08:37:00 0.24,-104.38 0.23,-104.30 8.27 80
6 10/09/2022 08:24:13 0.24,-104.37 -0.42,-101.19 361.23 80
7 10/09/2022 20:45:28 -0.22,-104.30 -0.65,-106.34 231.87 80
8 10/11/2022 20:35:21 -0.22,-104.30 0.04,-103.24 122.33 80
9 10/12/2022 08:56:28 0.19,-104.40 1.02,-108.36 449.38 80
10 10/13/2022 20:22:33 -0.23,-104.31 0.69,-100.12 476.77 80
11 10/14/2022 08:43:40 0.20,-104.39 0.36,-105.24 95.95 80
